N80EM KLAX-KEWR

Flight info

Callsign N80EM
Flight time N/A
Altitude 41000
Route ORCKA5 LAS J146 DVC HBU MCK OVR/N0495F450 DSM EVOTE NELLS KEEHO J584 SLT FQM3
Aircraft C750/M-SBDE3FGHRWXY/S

Departure

Time 2026-05-07 18:04
Airport Los Angeles International Airport (KLAX)

Arrival

Time N/A
Airport Newark Liberty International Airport (KEWR)
Time Latitude Longitude Altitude Speed Heading
2026-05-07 17:51 33.93362 -118.39409 92 ft 0 kts 271°
2026-05-07 18:00 33.93366 -118.39411 91 ft 1 kts 320°
2026-05-07 18:01 33.93382 -118.39403 91 ft 8 kts 22°
2026-05-07 18:01 33.93439 -118.39389 89 ft 8 kts
2026-05-07 18:01 33.93492 -118.39383 90 ft 9 kts 30°
2026-05-07 18:01 33.93509 -118.39292 93 ft 17 kts 83°
2026-05-07 18:02 33.93583 -118.39099 92 ft 11 kts 350°
2026-05-07 18:02 33.93643 -118.39145 89 ft 9 kts 312°
2026-05-07 18:02 33.93646 -118.39173 90 ft 0 kts 261°
2026-05-07 18:04 33.93632 -118.39296 89 ft 53 kts 262°
2026-05-07 18:04 33.93547 -118.40122 108 ft 133 kts 262°
2026-05-07 18:04 33.93431 -118.41239 650 ft 137 kts 262°
2026-05-07 18:04 33.93310 -118.42425 1138 ft 148 kts 261°
2026-05-07 18:05 33.93174 -118.43694 1712 ft 157 kts 263°
2026-05-07 18:05 33.93086 -118.45025 2266 ft 165 kts 277°
2026-05-07 18:05 33.93720 -118.46254 2449 ft 194 kts 323°
2026-05-07 18:05 33.95059 -118.46941 2667 ft 215 kts 346°
2026-05-07 18:06 33.96534 -118.46732 3159 ft 224 kts 26°
2026-05-07 18:06 33.97309 -118.45879 3515 ft 226 kts 53°
2026-05-07 18:06 33.98054 -118.44236 4086 ft 228 kts 62°
2026-05-07 18:06 33.98775 -118.42508 4762 ft 232 kts 61°
2026-05-07 18:07 33.99583 -118.40819 5558 ft 234 kts 58°
2026-05-07 18:07 34.00449 -118.39135 6287 ft 238 kts 58°
2026-05-07 18:07 34.01312 -118.37424 7075 ft 239 kts 59°
2026-05-07 18:07 34.02166 -118.35702 7918 ft 239 kts 58°
2026-05-07 18:08 34.03020 -118.33983 8812 ft 240 kts 58°
2026-05-07 18:08 34.03879 -118.32262 9694 ft 239 kts 58°
2026-05-07 18:08 34.04737 -118.30542 10436 ft 242 kts 58°
2026-05-07 18:08 34.05607 -118.28794 11121 ft 244 kts 58°
2026-05-07 18:09 34.06482 -118.27035 11853 ft 245 kts 58°
2026-05-07 18:09 34.07365 -118.25261 12551 ft 248 kts 58°
2026-05-07 18:09 34.08255 -118.23473 13287 ft 249 kts 58°
2026-05-07 18:09 34.09149 -118.21673 14001 ft 251 kts 58°
2026-05-07 18:10 34.10049 -118.19861 14656 ft 253 kts 58°
2026-05-07 18:10 34.10954 -118.18037 15313 ft 254 kts 58°
2026-05-07 18:10 34.11865 -118.16202 15984 ft 256 kts 58°
2026-05-07 18:10 34.12782 -118.14354 16655 ft 258 kts 58°
2026-05-07 18:11 34.13702 -118.12498 17366 ft 259 kts 58°
2026-05-07 18:11 34.14631 -118.10624 18069 ft 261 kts 58°
2026-05-07 18:11 34.15565 -118.08737 18727 ft 263 kts 58°
2026-05-07 18:11 34.16509 -118.06830 19330 ft 266 kts 58°
2026-05-07 18:12 34.17463 -118.04903 19960 ft 269 kts 57°
2026-05-07 18:12 34.18429 -118.02947 20483 ft 277 kts 58°
2026-05-07 18:12 34.19463 -118.00858 20510 ft 302 kts 57°
2026-05-07 18:12 34.20585 -117.98593 20507 ft 326 kts 58°
2026-05-07 18:13 34.21784 -117.96161 20547 ft 348 kts 58°
2026-05-07 18:13 34.23056 -117.93575 20609 ft 368 kts 58°
2026-05-07 18:13 34.24399 -117.90849 20673 ft 386 kts 58°
2026-05-07 18:13 34.25783 -117.88039 21168 ft 390 kts 58°
2026-05-07 18:14 34.27173 -117.85213 21703 ft 393 kts 58°
2026-05-07 18:14 34.28576 -117.82363 22214 ft 397 kts 58°
2026-05-07 18:14 34.29990 -117.79480 22732 ft 400 kts 58°
2026-05-07 18:14 34.31416 -117.76573 23289 ft 404 kts 58°
2026-05-07 18:15 34.32856 -117.73639 23786 ft 408 kts 58°
2026-05-07 18:15 34.34307 -117.70678 24247 ft 410 kts 58°
2026-05-07 18:15 34.35877 -117.67781 24607 ft 413 kts 53°
2026-05-07 18:15 34.37564 -117.65014 25077 ft 415 kts 53°
2026-05-07 18:16 34.39261 -117.62171 25526 ft 418 kts 53°
2026-05-07 18:16 34.40956 -117.59295 25950 ft 421 kts 53°
2026-05-07 18:16 34.42675 -117.56410 26383 ft 424 kts 53°
2026-05-07 18:16 34.44416 -117.53510 26810 ft 427 kts 53°
2026-05-07 18:17 34.46162 -117.50584 27320 ft 430 kts 53°
2026-05-07 18:17 34.47914 -117.47630 27758 ft 433 kts 53°
2026-05-07 18:17 34.49675 -117.44663 28252 ft 435 kts 53°
2026-05-07 18:17 34.51450 -117.41680 28680 ft 438 kts 53°
2026-05-07 18:18 34.53237 -117.38674 29092 ft 441 kts 53°
2026-05-07 18:18 34.55033 -117.35644 29500 ft 444 kts 53°
2026-05-07 18:18 34.56840 -117.32594 29901 ft 447 kts 53°
2026-05-07 18:18 34.58659 -117.29523 30284 ft 450 kts 53°
2026-05-07 18:19 34.60487 -117.26433 30626 ft 452 kts 53°
2026-05-07 18:19 34.62323 -117.23327 30974 ft 454 kts 53°
2026-05-07 18:19 34.64161 -117.20215 31442 ft 452 kts 53°
2026-05-07 18:19 34.65982 -117.17128 31935 ft 449 kts 53°
2026-05-07 18:20 34.67794 -117.14055 32523 ft 445 kts 53°
2026-05-07 18:20 34.69590 -117.11007 33081 ft 443 kts 53°
2026-05-07 18:20 34.71378 -117.07969 33647 ft 441 kts 53°
2026-05-07 18:20 34.73155 -117.04945 34187 ft 439 kts 53°
2026-05-07 18:21 34.74928 -117.01929 34611 ft 438 kts 53°
2026-05-07 18:21 34.76700 -116.98911 35006 ft 439 kts 53°
2026-05-07 18:21 34.78473 -116.95888 35409 ft 439 kts 53°
2026-05-07 18:21 34.80246 -116.92863 35829 ft 439 kts 53°
2026-05-07 18:22 34.82019 -116.89835 36253 ft 440 kts 53°
2026-05-07 18:22 34.83194 -116.87828 36525 ft 440 kts 53°
2026-05-07 18:22 34.85563 -116.83776 37201 ft 438 kts 53°
2026-05-07 18:22 34.87325 -116.80757 37658 ft 437 kts 53°
2026-05-07 18:23 34.89088 -116.77738 38085 ft 437 kts 53°
2026-05-07 18:23 34.90848 -116.74719 38512 ft 437 kts 53°
2026-05-07 18:23 34.92706 -116.71795 38858 ft 436 kts 47°
2026-05-07 18:23 34.94744 -116.69124 39168 ft 436 kts 45°
2026-05-07 18:24 34.96854 -116.66397 39481 ft 437 kts 45°
2026-05-07 18:24 34.98893 -116.63712 39773 ft 438 kts 46°
2026-05-07 18:24 35.00950 -116.60975 40073 ft 438 kts 46°
2026-05-07 18:24 35.03020 -116.58243 40373 ft 439 kts 45°
2026-05-07 18:25 35.05101 -116.55514 40697 ft 439 kts 45°
2026-05-07 18:25 35.07173 -116.52781 40933 ft 440 kts 46°
2026-05-07 18:25 35.09269 -116.50004 40912 ft 449 kts 46°
2026-05-07 18:26 35.13573 -116.44310 40918 ft 464 kts 46°
2026-05-07 18:26 35.18015 -116.38424 40949 ft 478 kts 46°
2026-05-07 18:27 35.22581 -116.32361 40939 ft 492 kts 46°
2026-05-07 18:27 35.27268 -116.26127 40936 ft 503 kts 46°
2026-05-07 18:28 35.32001 -116.19820 40921 ft 503 kts 46°
2026-05-07 18:28 35.36736 -116.13499 40933 ft 503 kts 46°
2026-05-07 18:29 35.41467 -116.07170 40933 ft 504 kts 46°
2026-05-07 18:29 35.46198 -116.00830 40942 ft 504 kts 46°
2026-05-07 18:30 35.50926 -115.94483 40957 ft 504 kts 46°
2026-05-07 18:30 35.55644 -115.88138 40955 ft 503 kts 46°
2026-05-07 18:31 35.60357 -115.81786 40950 ft 503 kts 46°
2026-05-07 18:31 35.65066 -115.75418 40964 ft 503 kts 47°
2026-05-07 18:32 35.69720 -115.68981 40962 ft 503 kts 47°
2026-05-07 18:32 35.74396 -115.62567 40973 ft 503 kts 47°
2026-05-07 18:33 35.79049 -115.56141 40977 ft 503 kts 47°
2026-05-07 18:33 35.82920 -115.50793 40985 ft 503 kts 47°